カタログに戻る

CZ-4 DEB

運用中SSO
NORAD 26126·DEBRIS·🇨🇳 China

打ち上げ Oct 14, 1999 から Taiyuan Satellite Launch Center

Loading…

次のパス (今後24時間)

TLE

最新Source: Space-Track

元期: Sep 14, 2026, 10:30 UTC

1 26126U 99057N   26257.43754690  .00000640  00000-0  18558-3 0  9997
2 26126  98.6215 313.3276 0092544 268.6268 218.8775 14.45544415388652

AllMySatでCZ-4 DEBをリアルタイム追跡

Download on the App Store